Theta_e
319 314 313 314 315 315 314 311 309 315 318 316 315 314 317 321 319 320 322 322 319 319 324 327 328 329 324 322 320 324 327 327 325 322 320 318 318 321 322 322 323 324 323 323
312 310 317 318 316 315 314 310 311 314 316 316 314 312 315 319 318 319 321 322 318 321 323 325 328 327 324 325 323 328 329 328 327 323 322 321 321 321 322 323 324 323 323 322
308 313 318 315 315 313 313 311 312 311 315 316 314 311 312 316 318 319 320 323 323 322 322 324 326 329 330 324 326 332 331 330 327 324 323 322 322 322 319 320 319 322 322 322
311 317 315 314 311 314 308 315 313 313 312 306 313 302 310 312 313 316 317 318 322 322 323 324 325 328 330 330 331 333 332 331 327 327 323 322 318 316 318 320 320 323 322 322
310 312 313 312 312 314 312 316 314 314 312 309 308 304 308 311 309 313 317 319 320 322 322 323 324 325 329 331 332 333 332 330 328 326 325 320 319 317 320 319 322 325 324 323
314 318 315 315 315 315 317 313 313 313 310 302 306 304 305 307 308 311 314 315 318 321 323 324 326 326 327 330 330 329 330 329 328 325 323 323 322 321 320 320 320 319 318 319
313 312 313 316 313 315 314 311 301 299 300 298 306 302 305 309 312 313 313 314 316 320 320 321 322 322 323 324 325 325 325 326 325 323 322 322 322 323 322 320 318 320 316 316
307 305 311 312 310 310 311 309 300 293 295 299 305 299 300 311 315 315 316 315 315 316 318 319 321 320 320 322 324 325 324 324 324 322 322 322 322 320 319 320 319 318 317 318
309 307 312 311 312 312 310 306 310 303 305 300 303 303 307 310 309 310 310 312 313 315 317 319 320 320 321 323 323 323 322 321 322 321 321 322 322 322 321 322 323 318 322 318
312 305 310 312 312 313 310 312 303 305 295 293 299 300 300 304 304 308 309 311 313 315 316 317 318 319 318 318 319 320 322 322 322 322 319 319 321 322 322 322 322 322 321 322
313 308 307 310 307 306 307 308 307 306 303 296 293 299 306 305 307 308 309 312 313 314 315 316 317 317 317 318 319 321 320 319 319 319 320 318 320 321 322 321 321 322 323 321
314 311 304 304 309 310 308 305 305 300 299 303 298 298 308 309 309 310 311 311 313 315 312 312 312 312 312 313 313 316 320 320 318 318 317 314 317 320 321 319 320 321 322 321
315 308 301 302 306 308 305 305 306 305 305 298 295 299 309 310 308 310 311 311 311 309 308 307 308 309 310 312 313 314 316 318 319 320 317 314 314 316 321 320 322 322 321 321
319 312 305 300 302 305 302 302 303 303 300 299 300 300 304 305 306 308 309 309 306 306 306 307 308 309 310 312 312 313 314 316 318 319 319 314 313 315 319 320 320 319 321 319
316 305 306 304 304 304 303 302 302 301 301 298 301 300 304 305 307 308 306 305 304 305 306 307 308 309 310 312 312 313 314 315 318 318 318 314 313 317 319 319 319 320 320 319
313 305 306 302 304 304 301 303 303 303 303 303 302 300 308 308 309 305 303 304 304 305 306 307 308 308 309 310 311 313 314 315 316 313 315 318 314 315 319 318 318 320 320 320
310 308 305 300 303 303 300 304 304 304 305 305 300 305 307 305 303 303 304 304 304 306 307 307 308 309 310 310 312 312 313 315 315 314 314 316 315 314 316 318 318 318 320 320
312 310 309 305 303 294 306 310 308 306 305 307 306 305 305 303 303 304 305 305 306 307 308 309 309 310 312 312 312 313 314 313 314 314 312 313 315 313 315 317 317 319 320 320
316 312 307 301 300 303 305 307 306 304 303 308 305 305 303 302 304 304 306 308 308 310 310 311 312 312 313 312 313 314 313 313 312 313 314 313 314 313 314 316 318 321 320 319
315 316 309 306 297 294 306 309 312 310 298 308 305 303 301 302 297 301 308 310 310 311 312 313 314 313 313 313 314 313 311 312 311 312 313 315 316 314 313 315 319 321 322 320
309 309 305 302 300 304 308 308 310 297 300 306 304 303 303 302 304 308 310 310 312 313 313 313 313 312 313 313 314 311 311 311 312 314 314 315 316 313 314 315 316 317 319 321
307 305 304 304 299 296 309 308 302 306 306 304 304 305 304 306 308 309 310 310 310 310 310 310 309 309 311 313 312 310 309 311 312 313 313 314 315 316 317 316 315 313 316 319
307 311 308 306 305 311 311 309 309 307 305 305 306 307 308 307 308 309 309 308 308 308 308 308 307 307 309 310 309 307 308 309 309 309 311 313 314 313 315 316 316 314 314 319
311 312 310 307 308 307 308 309 309 307 307 308 308 308 309 309 309 308 306 307 307 307 306 307 306 305 306 306 306 306 307 308 308 307 308 312 312 311 314 315 316 313 314 312
314 312 308 306 308 308 308 309 309 308 309 308 309 310 309 308 306 305 305 306 306 305 306 306 305 304 304 306 306 306 307 306 306 307 307 308 309 311 311 312 315 315 310 306
314 312 307 305 311 309 309 311 309 307 308 309 308 308 308 306 305 305 306 305 304 305 306 305 305 304 304 304 303 304 306 305 306 304 304 304 305 307 309 309 312 300 299 299
Wind_Speed
6 12 3 9 5 6 6 6 3 6 4 1 4 6 3 4 4 6 9 7 4 8 6 10 10 8 5 3 5 9 8 4 5 5 6 7 5 4 4 4 4 6 5 7
8 5 6 2 0 4 4 4 4 4 4 6 6 5 4 6 5 3 6 7 8 10 6 7 9 10 11 10 8 13 10 6 6 4 4 5 5 5 5 4 5 5 6 7
11 9 4 4 4 6 7 9 4 8 8 3 5 8 7 8 5 3 2 4 10 7 5 4 8 12 11 10 12 11 9 7 8 4 5 5 7 7 3 3 5 4 6 6
5 4 6 5 3 6 14 5 6 6 11 3 6 3 6 2 1 0 1 3 7 8 6 5 4 7 10 10 12 9 8 7 7 6 5 4 6 6 6 7 6 6 5 6
5 2 6 10 5 5 6 2 4 9 12 6 9 8 10 2 4 5 3 1 3 6 7 5 5 5 6 9 9 8 7 8 8 6 6 6 5 5 5 6 7 6 5 5
4 3 5 5 5 1 7 4 4 6 6 12 8 6 10 3 4 3 4 7 7 6 5 5 5 4 6 5 8 7 8 9 9 7 6 7 7 8 8 8 7 4 4 4
6 2 5 1 5 5 6 8 8 8 10 2 4 7 10 3 1 5 8 9 8 8 5 7 6 4 5 5 4 6 7 9 9 7 6 7 6 7 9 6 4 6 4 3
9 10 4 1 4 6 7 7 9 13 12 6 6 1 5 6 5 5 7 10 10 8 8 9 10 9 10 12 11 9 7 8 7 7 7 6 5 5 6 2 5 5 5 4
5 4 4 4 4 5 5 8 7 11 10 10 7 7 7 8 6 6 6 8 9 11 11 10 10 12 11 12 12 10 7 6 8 8 5 7 6 5 6 5 5 3 3 5
3 6 1 5 3 5 6 5 7 7 9 7 8 4 7 2 4 5 7 8 8 8 8 9 9 11 11 9 8 8 9 9 9 7 5 7 8 6 5 7 7 5 5 5
1 5 7 6 4 7 3 3 2 5 6 8 6 7 5 3 4 6 7 7 8 10 11 11 11 12 13 14 14 11 9 9 9 6 7 6 9 7 7 8 9 9 6 6
4 4 2 6 4 4 5 5 5 7 5 1 7 6 5 2 3 6 10 10 11 13 11 12 12 11 12 13 13 14 12 10 9 8 8 4 8 11 9 6 9 11 11 5
3 3 5 8 8 6 1 4 2 4 5 1 9 8 4 3 3 6 7 10 10 11 14 13 13 13 13 13 14 15 15 12 12 10 7 6 7 5 13 9 10 10 10 7
1 0 6 8 7 4 2 2 3 5 7 5 2 4 6 2 7 8 9 10 10 10 11 11 12 13 12 12 14 15 16 16 13 11 8 7 8 4 11 10 10 7 13 7
1 3 3 6 4 4 2 3 3 3 4 6 8 4 4 4 8 8 9 10 10 10 11 13 14 14 13 14 14 15 15 16 17 15 11 7 6 9 11 8 9 9 10 7
1 4 5 4 3 1 0 2 1 1 1 2 4 1 4 4 4 8 7 9 10 10 11 13 15 15 15 15 14 15 15 14 13 11 15 7 7 7 12 9 11 10 11 9
4 6 5 3 2 2 8 8 5 1 4 6 9 5 3 3 6 7 7 8 10 11 12 12 13 13 13 14 14 14 15 14 15 12 11 12 10 10 13 11 10 9 9 5
7 6 2 3 4 6 7 3 3 7 3 2 1 2 3 4 6 5 6 9 10 12 13 12 12 13 12 13 12 13 15 14 13 15 8 10 9 7 10 12 9 11 10 9
5 6 2 4 8 4 8 6 6 6 5 5 3 2 2 3 7 7 5 8 11 13 13 11 12 13 13 12 12 13 15 14 13 15 15 9 7 6 11 12 10 9 8 8
6 6 6 3 8 8 8 5 4 2 9 7 3 2 2 5 7 7 11 12 13 15 13 13 13 14 15 14 12 14 14 14 14 14 14 11 11 6 8 9 11 8 8 8
6 6 9 6 6 3 5 5 5 7 7 5 2 1 2 5 7 11 13 14 14 14 13 13 13 12 14 15 13 13 14 14 15 15 14 12 8 4 7 8 7 7 10 11
5 5 4 2 5 5 7 7 6 7 4 4 3 1 3 7 10 12 14 14 13 14 13 13 13 13 13 12 11 13 13 15 16 16 15 12 10 9 8 7 3 2 9 11
4 4 5 5 7 6 4 4 7 4 6 4 0 4 7 9 11 12 12 13 13 13 12 12 12 13 12 12 12 13 13 14 15 16 15 13 13 10 9 9 6 4 6 8
3 4 2 5 7 7 7 7 6 3 2 1 3 5 8 9 10 11 12 11 10 11 11 11 11 11 13 12 13 12 13 13 13 13 14 13 12 11 9 7 5 5 6 6
4 7 4 2 6 7 7 6 5 4 2 4 3 5 6 8 9 10 9 9 10 10 10 9 11 12 12 12 13 13 14 13 13 13 11 10 9 11 10 7 3 3 1 2
6 3 4 4 8 5 6 9 5 3 2 2 4 4 5 6 8 8 8 8 9 9 9 10 11 11 12 12 11 10 12 15 16 13 10 8 8 9 10 8 5 5 3 2
Wind_Direction
207 264 3 22 341 328 297 295 25 109 141 184 91 141 147 195 239 246 234 211 204 260 232 213 216 202 180 173 227 253 242 237 276 312 332 346 339 335 337 336 328 293 299 289
223 239 73 69 259 244 252 277 125 130 181 262 178 126 164 164 176 312 304 206 197 218 221 227 215 196 206 215 210 239 231 230 251 283 340 323 312 311 339 302 307 301 302 295
282 43 139 241 173 232 217 272 150 296 169 194 214 177 163 180 251 267 259 224 214 248 263 256 211 225 229 220 223 242 236 232 240 295 258 242 244 233 266 293 314 4 295 293
313 79 240 249 249 286 293 355 272 190 207 257 206 338 152 129 82 76 34 213 234 237 238 242 255 239 236 230 235 243 232 226 229 233 269 283 298 300 333 292 311 298 252 284
66 225 236 253 9 302 20 325 232 215 235 221 164 261 102 128 152 65 72 270 254 246 251 263 295 281 240 238 246 248 238 222 228 231 266 276 273 324 305 301 297 277 248 249
29 74 17 43 25 75 124 136 182 219 244 242 106 263 106 97 36 68 71 43 18 343 310 283 293 288 302 244 249 254 223 226 220 226 241 251 277 297 310 322 306 279 302 293
174 99 97 142 149 151 235 223 259 225 201 34 119 235 63 58 92 29 23 19 22 10 11 309 289 302 271 245 266 261 227 220 213 226 255 247 256 293 293 319 339 305 329 334
231 184 189 94 329 332 234 320 296 302 307 351 143 271 88 42 68 39 34 24 18 360 2 358 7 5 356 353 341 292 254 242 224 225 251 246 240 282 288 303 335 356 350 18
286 162 141 61 45 305 131 246 10 288 237 260 97 104 151 107 59 49 46 31 25 18 21 18 24 19 8 353 343 333 300 270 244 244 256 265 246 263 298 271 260 293 293 334
69 270 193 103 225 101 332 27 259 213 283 287 133 204 121 46 21 32 30 20 20 21 21 23 14 7 8 9 345 318 298 284 266 250 260 281 264 246 265 278 268 274 275 278
347 279 111 211 20 351 252 225 289 302 305 304 309 98 51 31 18 6 12 3 356 350 357 359 359 7 358 348 348 335 317 301 297 270 265 270 285 273 251 265 280 291 253 253
49 326 278 38 87 58 39 20 327 300 110 13 310 83 104 62 46 351 354 3 4 353 0 350 349 355 352 349 344 331 329 307 285 259 257 255 279 283 273 240 276 275 282 257
148 184 207 179 173 182 359 37 348 296 274 253 308 90 127 123 335 2 353 6 354 347 2 357 351 357 358 354 349 343 336 329 313 300 269 241 258 313 290 268 267 280 278 271
23 95 305 344 33 44 158 25 15 299 284 12 18 103 153 341 358 346 356 354 352 356 354 351 346 344 345 348 347 341 342 333 329 306 279 272 281 283 282 263 269 264 272 267
338 122 105 77 84 72 78 27 341 334 0 307 25 318 45 340 353 338 347 347 343 344 345 347 348 340 338 347 344 340 339 341 339 322 292 263 249 277 280 262 256 276 273 253
157 136 147 123 125 119 213 223 184 57 8 254 295 312 27 350 296 349 338 337 335 339 343 341 349 345 346 344 343 337 340 336 337 328 313 275 281 264 285 265 253 256 263 250
166 145 215 128 194 266 253 211 225 277 267 314 307 56 315 320 339 330 323 319 332 333 331 338 339 347 347 340 338 342 335 335 339 352 322 292 272 264 268 273 254 263 274 254
152 180 212 57 195 243 64 157 277 286 316 251 208 288 5 337 318 317 327 338 336 331 326 332 331 334 338 332 336 331 332 334 336 336 342 324 279 264 264 280 255 253 253 258
193 218 181 226 218 278 194 221 207 233 300 185 251 241 302 314 297 187 2 340 323 319 323 326 321 321 319 316 325 324 325 331 335 339 344 345 282 285 280 289 281 261 252 242
184 248 264 239 284 290 74 124 170 267 261 127 203 267 304 318 296 20 345 330 325 331 324 325 323 314 324 328 317 316 323 329 340 336 338 359 341 284 262 299 306 295 256 253
205 245 252 265 267 116 97 145 190 243 70 139 215 204 291 310 329 318 327 335 335 338 336 337 327 332 330 332 336 327 330 340 333 332 330 343 342 313 285 269 258 297 306 262
265 270 241 271 270 232 143 155 256 74 117 147 162 268 313 321 325 327 336 340 344 342 344 343 337 340 338 354 340 338 341 343 336 329 325 333 342 334 324 285 269 280 308 275
244 324 350 337 30 109 157 73 116 131 148 153 258 359 329 314 328 340 339 343 345 346 346 345 340 339 344 354 350 339 343 340 333 332 328 326 326 348 346 329 294 269 270 284
181 198 258 216 144 152 140 136 146 170 146 73 336 321 321 334 342 341 338 346 347 349 345 344 349 343 352 344 337 333 333 331 324 328 327 328 322 332 339 340 341 326 342 349
30 166 169 139 167 160 179 181 176 184 222 279 318 353 358 347 345 344 342 353 350 346 350 351 353 341 343 344 345 349 344 335 329 329 320 330 326 328 320 324 351 352 60 12
187 138 230 15 138 230 145 188 187 226 321 358 338 341 4 351 342 347 354 359 353 346 354 351 347 340 348 355 356 345 352 348 337 331 335 340 323 323 313 314 330 166 173 323